Location: UFOWorks Observatory
(42.1050°N, 72.2350°W)
Time: 09:28:22
(UTC-04:00)

ISS - Visible Passes

Search period start: 30 September 2016 00:00
Search period end: 10 October 2016 00:00
Orbit: 400 x 409 km, 51.6° (Epoch: 30 September)

Date Brightness Start Highest point End Pass type
(mag) Time Alt. Az. Time Alt. Az. Time Alt. Az.
30 Sep -2.3 18:58:58 10° SSW 19:01:50 29° SE 19:04:43 10° ENE visible
30 Sep -1.7 20:35:12 10° W 20:37:47 34° NW 20:37:47 34° NW visible
01 Oct -2.9 19:42:47 10° WSW 19:46:00 61° NNW 19:47:59 21° NE visible
01 Oct 0.3 21:20:36 10° WNW 21:20:39 10° WNW 21:20:39 10° WNW visible
02 Oct -1.3 20:27:54 10° WNW 20:30:35 23° NNW 20:30:43 23° NNW visible
03 Oct -1.8 19:35:15 10° W 19:38:13 32° NNW 19:40:41 13° NE visible
04 Oct -1.0 20:20:41 10° NW 20:22:57 17° N 20:23:13 17° N visible
05 Oct -1.2 19:27:56 10° WNW 19:30:29 21° NNW 19:33:02 10° NE visible
06 Oct -0.9 20:13:18 10° NW 20:15:20 15° N 20:15:28 15° N visible
07 Oct -0.9 19:20:37 10° NW 19:22:49 16° N 19:25:00 10° NE visible
07 Oct 0.1 20:57:50 10° NW 20:57:51 10° NW 20:57:51 10° NW visible
08 Oct -1.0 20:05:33 10° NW 20:07:33 16° N 20:07:33 16° N visible
09 Oct -1.0 19:13:06 10° NW 19:15:07 15° N 19:17:09 10° NE visible
09 Oct 0.0 20:49:38 10° NW 20:49:54 11° NW 20:49:54 11° NW visible
